| time (UTC) | temp F | wind direction | speed MPH | gust MPH | rain 1hr in | rain 24hr in | rain mn in | humidity % | barometer mb |
| 20260510204200 | 66 | 112 | 0.0 | 0.0 | 0.00 | 0.01 | 0.01 | 85 | 1015.5 |
| 20260510203657 | 66 | 111 | 0.0 | 0.0 | 0.00 | 0.01 | 0.01 | 84 | 1016.0 |
| 20260510203155 | 66 | 112 | 0.0 | 0.0 | 0.00 | 0.01 | 0.01 | 84 | 1015.7 |
| 20260510202654 | 66 | 112 | 0.0 | 1.0 | 0.00 | 0.01 | 0.01 | 84 | 1015.6 |
| 20260510202149 | 67 | 112 | 0.0 | 0.0 | 0.00 | 0.01 | 0.01 | 83 | 1015.7 |
| 20260510201647 | 67 | 124 | 0.0 | 1.0 | 0.00 | 0.01 | 0.01 | 84 | 1015.8 |
| 20260510201144 | 66 | 124 | 0.0 | 1.0 | 0.00 | 0.01 | 0.01 | 84 | 1015.5 |
| 20260510200640 | 66 | 121 | 0.0 | 2.0 | 0.00 | 0.01 | 0.01 | 84 | 1015.8 |
| 20260510200138 | 66 | 145 | 1.0 | 1.0 | 0.00 | 0.01 | 0.01 | 84 | 1015.9 |
| 20260510195635 | 66 | 131 | 0.0 | 1.0 | 0.00 | 0.01 | 0.01 | 85 | 1015.8 |
| 20260510195131 | 65 | 145 | 1.0 | 2.0 | 0.00 | 0.01 | 0.01 | 85 | 1015.7 |
| 20260510194630 | 65 | 250 | 3.0 | 3.0 | 0.00 | 0.01 | 0.01 | 85 | 1015.5 |
| 20260510194127 | 65 | 144 | 2.0 | 2.0 | 0.00 | 0.01 | 0.01 | 85 | 1015.5 |
| 20260510193622 | 65 | 151 | 2.0 | 3.0 | 0.00 | 0.01 | 0.01 | 85 | 1015.7 |
| 20260510193118 | 65 | 191 | 1.0 | 2.0 | 0.00 | 0.01 | 0.01 | 86 | 1015.6 |
| 20260510192614 | 64 | 203 | 2.0 | 2.0 | 0.00 | 0.01 | 0.01 | 86 | 1015.8 |
| 20260510192109 | 64 | 157 | 1.0 | 5.0 | 0.00 | 0.01 | 0.01 | 85 | 1015.8 |
| 20260510191606 | 65 | 150 | 2.0 | 3.0 | 0.00 | 0.01 | 0.01 | 85 | 1015.8 |
| 20260510191102 | 64 | 110 | 1.0 | 2.0 | 0.00 | 0.01 | 0.01 | 85 | 1016.1 |
| 20260510190600 | 65 | 115 | 1.0 | 3.0 | 0.00 | 0.01 | 0.01 | 84 | 1015.8 |
| 20260510190057 | 66 | 148 | 1.0 | 2.0 | 0.00 | 0.01 | 0.01 | 83 | 1016.0 |
| 20260510185554 | 67 | 162 | 1.0 | 3.0 | 0.00 | 0.01 | 0.01 | 82 | 1016.0 |
| 20260510185051 | 68 | 161 | 1.0 | 2.0 | 0.00 | 0.01 | 0.01 | 81 | 1016.2 |
| 20260510184549 | 69 | 89 | 0.0 | 1.0 | 0.00 | 0.01 | 0.01 | 82 | 1016.2 |
| 20260510184044 | 69 | 134 | 0.0 | 1.0 | 0.00 | 0.01 | 0.01 | 83 | 1016.2 |
| 20260510183539 | 68 | 88 | 0.0 | 1.0 | 0.00 | 0.01 | 0.01 | 83 | 1016.0 |
| 20260510183035 | 68 | 100 | 1.0 | 1.0 | 0.00 | 0.01 | 0.01 | 85 | 1016.0 |
| 20260510182532 | 68 | 8 | 2.0 | 3.0 | 0.00 | 0.01 | 0.01 | 85 | 1016.2 |
| 20260510182027 | 67 | 258 | 2.0 | 2.0 | 0.00 | 0.01 | 0.01 | 87 | 1016.0 |
| 20260510181525 | 67 | 74 | 0.0 | 1.0 | 0.00 | 0.01 | 0.01 | 88 | 1016.0 |
| 20260510181021 | 67 | 336 | 3.0 | 3.0 | 0.00 | 0.01 | 0.01 | 89 | 1016.1 |
| 20260510180518 | 66 | 100 | 0.0 | 1.0 | 0.00 | 0.01 | 0.01 | 90 | 1016.1 |
| 20260510180016 | 65 | 74 | 1.0 | 2.0 | 0.00 | 0.01 | 0.01 | 91 | 1016.2 |
| 20260510175510 | 65 | 106 | 1.0 | 3.0 | 0.00 | 0.01 | 0.01 | 91 | 1016.0 |
| 20260510175007 | 65 | 49 | 1.0 | 2.0 | 0.00 | 0.01 | 0.01 | 91 | 1016.1 |
| 20260510174505 | 66 | 341 | 1.0 | 6.0 | 0.00 | 0.01 | 0.01 | 91 | 1016.0 |
| 20260510174001 | 66 | 87 | 1.0 | 2.0 | 0.00 | 0.01 | 0.01 | 92 | 1016.2 |
| 20260510173457 | 65 | 234 | 1.0 | 2.0 | 0.00 | 0.01 | 0.01 | 92 | 1016.1 |
| 20260510172954 | 64 | 83 | 1.0 | 6.0 | 0.00 | 0.01 | 0.01 | 92 | 1016.1 |
| 20260510172449 | 64 | 77 | 1.0 | 2.0 | 0.00 | 0.01 | 0.01 | 93 | 1016.0 |
| 20260510171946 | 62 | 256 | 1.0 | 2.0 | 0.00 | 0.01 | 0.01 | 93 | 1016.1 |
| 20260510171443 | 63 | 187 | 1.0 | 2.0 | 0.00 | 0.01 | 0.01 | 92 | 1016.3 |
| 20260510170939 | 62 | 100 | 1.0 | 1.0 | 0.00 | 0.01 | 0.01 | 93 | 1016.1 |
| 20260510170436 | 62 | 85 | 1.0 | 2.0 | 0.00 | 0.01 | 0.01 | 94 | 1016.4 |
| 20260510165932 | 61 | 251 | 1.0 | 2.0 | 0.00 | 0.01 | 0.01 | 94 | 1016.7 |
| 20260510165428 | 60 | 162 | 1.0 | 2.0 | 0.00 | 0.01 | 0.01 | 94 | 1016.8 |
| 20260510164925 | 60 | 98 | 0.0 | 2.0 | 0.00 | 0.01 | 0.01 | 94 | 1016.7 |
| 20260510164422 | 59 | 92 | 1.0 | 1.0 | 0.00 | 0.01 | 0.01 | 94 | 1016.6 |
| 20260510163917 | 58 | 161 | 1.0 | 2.0 | 0.00 | 0.01 | 0.01 | 94 | 1016.6 |
| 20260510163413 | 58 | 129 | 1.0 | 1.0 | 0.00 | 0.01 | 0.01 | 95 | 1016.7 |
| 20260510162908 | 57 | 136 | 0.0 | 3.0 | 0.00 | 0.01 | 0.01 | 96 | 1016.7 |
| 20260510162406 | 56 | 145 | 1.0 | 1.0 | 0.00 | 0.01 | 0.01 | 96 | 1016.6 |
| 20260510161901 | 57 | 126 | 0.0 | 1.0 | 0.00 | 0.01 | 0.01 | 96 | 1016.7 |
| 20260510161357 | 57 | 143 | 1.0 | 1.0 | 0.00 | 0.01 | 0.01 | 96 | 1016.6 |
| 20260510160854 | 56 | 230 | 1.0 | 2.0 | 0.00 | 0.01 | 0.01 | 96 | 1016.6 |
| 20260510160351 | 56 | 96 | 1.0 | 1.0 | 0.00 | 0.01 | 0.01 | 96 | 1016.4 |
| 20260510155850 | 56 | 143 | 0.0 | 1.0 | 0.00 | 0.01 | 0.01 | 96 | 1016.7 |
| 20260510155347 | 56 | 140 | 0.0 | 1.0 | 0.00 | 0.01 | 0.01 | 96 | 1016.9 |
| 20260510154843 | 56 | 165 | 1.0 | 1.0 | 0.00 | 0.01 | 0.01 | 96 | 1016.7 |
| 20260510154339 | 56 | 150 | 1.0 | 1.0 | 0.00 | 0.01 | 0.01 | 96 | 1016.9 |
| 20260510153833 | 56 | 143 | 1.0 | 1.0 | 0.00 | 0.01 | 0.01 | 96 | 1016.8 |
| 20260510153330 | 55 | 96 | 0.0 | 1.0 | 0.00 | 0.01 | 0.01 | 96 | 1017.0 |
| 20260510152827 | 55 | 131 | 0.0 | 1.0 | 0.00 | 0.01 | 0.01 | 96 | 1016.9 |
| 20260510152324 | 55 | 131 | 0.0 | 1.0 | 0.00 | 0.01 | 0.01 | 96 | 1017.0 |
| 20260510151820 | 55 | 100 | 0.0 | 0.0 | 0.00 | 0.01 | 0.01 | 96 | 1016.9 |
| 20260510151318 | 55 | 123 | 0.0 | 1.0 | 0.00 | 0.01 | 0.01 | 96 | 1016.7 |
| 20260510150814 | 55 | 140 | 0.0 | 1.0 | 0.00 | 0.01 | 0.01 | 96 | 1016.9 |
| 20260510150309 | 54 | 124 | 0.0 | 0.0 | 0.00 | 0.01 | 0.01 | 96 | 1017.1 |
| 20260510145806 | 54 | 134 | 0.0 | 1.0 | 0.00 | 0.01 | 0.01 | 96 | 1017.0 |
| 20260510145305 | 54 | 158 | 1.0 | 1.0 | 0.00 | 0.01 | 0.01 | 96 | 1017.0 |
| 20260510144759 | 54 | 199 | 1.0 | 1.0 | 0.00 | 0.01 | 0.01 | 96 | 1016.9 |
| 20260510144256 | 54 | 138 | 1.0 | 1.0 | 0.00 | 0.01 | 0.01 | 96 | 1017.0 |
| 20260510143756 | 54 | 115 | 0.0 | 2.0 | 0.00 | 0.01 | 0.01 | 96 | 1016.8 |
| 20260510143252 | 54 | 85 | 0.0 | 2.0 | 0.00 | 0.01 | 0.01 | 96 | 1016.9 |
| 20260510142749 | 54 | 125 | 0.0 | 2.0 | 0.00 | 0.01 | 0.01 | 96 | 1016.9 |
| 20260510142245 | 54 | 136 | 1.0 | 1.0 | 0.00 | 0.01 | 0.01 | 96 | 1016.8 |
| 20260510141742 | 54 | 130 | 0.0 | 1.0 | 0.00 | 0.01 | 0.01 | 96 | 1016.7 |
| 20260510141241 | 54 | 143 | 1.0 | 1.0 | 0.00 | 0.01 | 0.01 | 96 | 1016.6 |
| 20260510140737 | 53 | 115 | 0.0 | 0.0 | 0.00 | 0.01 | 0.01 | 96 | 1016.3 |
| 20260510140232 | 53 | 115 | 0.0 | 0.0 | 0.00 | 0.01 | 0.01 | 96 | 1016.4 |
| 20260510135726 | 53 | 117 | 0.0 | 0.0 | 0.00 | 0.01 | 0.01 | 96 | 1016.3 |
| 20260510135222 | 53 | 97 | 0.0 | 0.0 | 0.00 | 0.01 | 0.01 | 96 | 1016.6 |
| 20260510134720 | 53 | 223 | 2.0 | 2.0 | 0.00 | 0.01 | 0.01 | 96 | 1016.4 |
| 20260510134217 | 53 | 121 | 0.0 | 1.0 | 0.00 | 0.01 | 0.01 | 96 | 1016.6 |
| 20260510133712 | 53 | 134 | 0.0 | 1.0 | 0.00 | 0.01 | 0.01 | 96 | 1016.6 |
| 20260510133208 | 52 | 134 | 1.0 | 1.0 | 0.00 | 0.01 | 0.01 | 96 | 1016.3 |
| 20260510132705 | 52 | 220 | 2.0 | 2.0 | 0.00 | 0.01 | 0.01 | 96 | 1016.4 |
| 20260510132202 | 53 | 141 | 0.0 | 1.0 | 0.00 | 0.01 | 0.01 | 96 | 1016.6 |
| 20260510131700 | 52 | 120 | 0.0 | 0.0 | 0.00 | 0.01 | 0.01 | 96 | 1016.1 |
| 20260510131157 | 52 | 112 | 0.0 | 1.0 | 0.00 | 0.01 | 0.01 | 96 | 1016.1 |
| 20260510130653 | 52 | 146 | 1.0 | 1.0 | 0.00 | 0.01 | 0.01 | 96 | 1016.2 |
| 20260510130150 | 53 | 119 | 0.0 | 0.0 | 0.00 | 0.01 | 0.01 | 96 | 1016.2 |
| 20260510125647 | 52 | 125 | 0.0 | 1.0 | 0.00 | 0.01 | 0.01 | 96 | 1016.0 |
| 20260510125143 | 52 | 122 | 0.0 | 0.0 | 0.00 | 0.01 | 0.01 | 96 | 1016.0 |
| 20260510124640 | 52 | 116 | 0.0 | 0.0 | 0.00 | 0.01 | 0.01 | 96 | 1016.1 |
| 20260510124137 | 52 | 117 | 0.0 | 0.0 | 0.00 | 0.01 | 0.01 | 96 | 1016.0 |
| 20260510123632 | 52 | 117 | 0.0 | 0.0 | 0.00 | 0.01 | 0.01 | 96 | 1016.0 |
| 20260510123128 | 52 | 119 | 0.0 | 1.0 | 0.00 | 0.01 | 0.01 | 96 | 1015.9 |
| 20260510122625 | 52 | 106 | 0.0 | 0.0 | 0.00 | 0.01 | 0.01 | 96 | 1015.8 |
| 20260510122121 | 52 | 119 | 0.0 | 0.0 | 0.00 | 0.01 | 0.01 | 96 | 1015.9 |
| 20260510121618 | 51 | 120 | 0.0 | 0.0 | 0.00 | 0.01 | 0.01 | 96 | 1015.9 |
| 20260510121115 | 51 | 25 | 1.0 | 2.0 | 0.00 | 0.01 | 0.01 | 96 | 1015.8 |
| 20260510120613 | 52 | 112 | 0.0 | 0.0 | 0.00 | 0.01 | 0.01 | 96 | 1015.8 |
| 20260510120108 | 52 | 138 | 0.0 | 1.0 | 0.00 | 0.01 | 0.01 | 96 | 1015.6 |
| 20260510115605 | 52 | 99 | 0.0 | 0.0 | 0.00 | 0.01 | 0.01 | 96 | 1015.8 |
| 20260510115102 | 51 | 98 | 0.0 | 0.0 | 0.00 | 0.01 | 0.01 | 96 | 1015.8 |
| 20260510114558 | 51 | 90 | 1.0 | 1.0 | 0.00 | 0.01 | 0.01 | 96 | 1015.6 |
| 20260510114054 | 51 | 124 | 0.0 | 2.0 | 0.00 | 0.01 | 0.01 | 96 | 1015.5 |
| 20260510113549 | 51 | 127 | 1.0 | 2.0 | 0.00 | 0.01 | 0.01 | 96 | 1015.5 |
| 20260510113047 | 51 | 130 | 1.0 | 2.0 | 0.00 | 0.01 | 0.01 | 96 | 1015.3 |
| 20260510112544 | 51 | 118 | 1.0 | 2.0 | 0.00 | 0.01 | 0.01 | 96 | 1015.1 |
| 20260510112040 | 50 | 115 | 0.0 | 1.0 | 0.00 | 0.01 | 0.01 | 96 | 1015.1 |
| 20260510111537 | 50 | 113 | 1.0 | 2.0 | 0.00 | 0.01 | 0.01 | 96 | 1015.1 |
| 20260510111033 | 51 | 141 | 1.0 | 2.0 | 0.00 | 0.01 | 0.01 | 96 | 1015.0 |
| 20260510110529 | 51 | 155 | 1.0 | 2.0 | 0.00 | 0.01 | 0.01 | 96 | 1014.9 |
| 20260510110026 | 50 | 120 | 1.0 | 1.0 | 0.00 | 0.01 | 0.01 | 96 | 1014.9 |
| 20260510105520 | 50 | 146 | 2.0 | 2.0 | 0.00 | 0.01 | 0.01 | 96 | 1015.1 |
| 20260510105016 | 50 | 124 | 0.0 | 1.0 | 0.00 | 0.01 | 0.01 | 96 | 1014.9 |
| 20260510104513 | 50 | 130 | 1.0 | 2.0 | 0.00 | 0.01 | 0.01 | 96 | 1014.8 |
| 20260510104009 | 50 | 123 | 0.0 | 0.0 | 0.00 | 0.01 | 0.01 | 96 | 1014.9 |
| 20260510103506 | 50 | 151 | 0.0 | 1.0 | 0.00 | 0.01 | 0.01 | 96 | 1015.1 |
| 20260510103002 | 50 | 162 | 1.0 | 1.0 | 0.00 | 0.01 | 0.01 | 96 | 1015.2 |
| 20260510102458 | 50 | 117 | 0.0 | 0.0 | 0.00 | 0.01 | 0.01 | 96 | 1015.0 |
| 20260510101954 | 50 | 118 | 0.0 | 0.0 | 0.00 | 0.01 | 0.01 | 96 | 1015.0 |
| 20260510101452 | 50 | 124 | 0.0 | 1.0 | 0.00 | 0.01 | 0.01 | 96 | 1014.8 |
| 20260510100951 | 50 | 123 | 0.0 | 1.0 | 0.00 | 0.01 | 0.01 | 96 | 1014.9 |
| 20260510100446 | 50 | 132 | 1.0 | 2.0 | 0.00 | 0.01 | 0.01 | 96 | 1015.3 |
| 20260510095943 | 50 | 129 | 0.0 | 1.0 | 0.00 | 0.01 | 0.01 | 96 | 1015.1 |
| 20260510095439 | 50 | 129 | 0.0 | 0.0 | 0.00 | 0.01 | 0.01 | 96 | 1014.9 |
| 20260510094938 | 50 | 132 | 0.0 | 0.0 | 0.00 | 0.01 | 0.01 | 95 | 1014.9 |
| 20260510094433 | 50 | 116 | 0.0 | 0.0 | 0.00 | 0.01 | 0.01 | 96 | 1015.2 |
| 20260510093929 | 50 | 116 | 0.0 | 1.0 | 0.00 | 0.01 | 0.01 | 95 | 1015.0 |
| 20260510093424 | 50 | 133 | 0.0 | 1.0 | 0.00 | 0.01 | 0.01 | 96 | 1015.1 |
| 20260510092921 | 50 | 145 | 1.0 | 1.0 | 0.00 | 0.01 | 0.01 | 95 | 1015.2 |
| 20260510092418 | 50 | 126 | 0.0 | 0.0 | 0.00 | 0.01 | 0.01 | 95 | 1015.5 |
| 20260510091913 | 50 | 133 | 0.0 | 1.0 | 0.00 | 0.01 | 0.01 | 95 | 1015.4 |
| 20260510091410 | 50 | 119 | 0.0 | 0.0 | 0.00 | 0.01 | 0.01 | 95 | 1015.5 |
| 20260510090907 | 50 | 116 | 0.0 | 0.0 | 0.00 | 0.01 | 0.01 | 95 | 1015.5 |
| 20260510090403 | 50 | 117 | 0.0 | 0.0 | 0.00 | 0.01 | 0.01 | 95 | 1015.4 |
| 20260510085859 | 50 | 116 | 0.0 | 0.0 | 0.00 | 0.01 | 0.01 | 95 | 1015.2 |
| 20260510085354 | 50 | 124 | 0.0 | 0.0 | 0.00 | 0.01 | 0.01 | 95 | 1015.4 |
| 20260510084850 | 50 | 128 | 1.0 | 1.0 | 0.00 | 0.01 | 0.01 | 95 | 1015.3 |
| 20260510084347 | 50 | 118 | 0.0 | 1.0 | 0.00 | 0.01 | 0.01 | 95 | 1015.0 |
| 20260510083844 | 50 | 85 | 0.0 | 1.0 | 0.00 | 0.01 | 0.01 | 95 | 1015.4 |
| 20260510083341 | 50 | 100 | 0.0 | 1.0 | 0.00 | 0.01 | 0.01 | 95 | 1015.4 |
| 20260510082836 | 50 | 104 | 0.0 | 1.0 | 0.00 | 0.01 | 0.01 | 95 | 1015.3 |
| 20260510082334 | 50 | 85 | 1.0 | 1.0 | 0.00 | 0.01 | 0.01 | 95 | 1015.5 |
| 20260510081832 | 50 | 81 | 0.0 | 0.0 | 0.00 | 0.01 | 0.01 | 95 | 1015.3 |
| 20260510081329 | 50 | 79 | 1.0 | 1.0 | 0.00 | 0.01 | 0.01 | 95 | 1015.3 |
| 20260510080824 | 50 | 133 | 1.0 | 1.0 | 0.00 | 0.01 | 0.01 | 95 | 1015.0 |
| 20260510080319 | 50 | 70 | 1.0 | 1.0 | 0.00 | 0.01 | 0.01 | 95 | 1015.1 |
| 20260510075817 | 50 | 102 | 0.0 | 0.0 | 0.00 | 0.01 | 0.01 | 95 | 1014.4 |
| 20260510075314 | 50 | 123 | 1.0 | 1.0 | 0.00 | 0.01 | 0.01 | 95 | 1014.4 |
| 20260510074811 | 50 | 105 | 0.0 | 0.0 | 0.00 | 0.01 | 0.01 | 95 | 1014.2 |
| 20260510074308 | 50 | 107 | 0.0 | 0.0 | 0.00 | 0.01 | 0.01 | 95 | 1014.5 |
| 20260510073804 | 50 | 112 | 0.0 | 0.0 | 0.00 | 0.01 | 0.01 | 95 | 1014.4 |
| 20260510073300 | 50 | 107 | 0.0 | 0.0 | 0.00 | 0.01 | 0.01 | 95 | 1014.3 |
| 20260510072756 | 50 | 99 | 0.0 | 0.0 | 0.00 | 0.01 | 0.01 | 95 | 1014.6 |
| 20260510072252 | 50 | 99 | 0.0 | 0.0 | 0.00 | 0.01 | 0.01 | 95 | 1014.4 |
| 20260510071749 | 51 | 106 | 0.0 | 0.0 | 0.00 | 0.01 | 0.01 | 95 | 1014.7 |
| 20260510071246 | 51 | 107 | 0.0 | 1.0 | 0.00 | 0.01 | 0.01 | 95 | 1014.6 |
| 20260510070744 | 51 | 105 | 0.0 | 0.0 | 0.00 | 0.01 | 0.01 | 95 | 1014.6 |
| 20260510070241 | 50 | 115 | 1.0 | 1.0 | 0.00 | 0.01 | 0.01 | 95 | 1014.5 |
| 20260510065741 | 50 | 106 | 0.0 | 0.0 | 0.00 | 0.01 | 0.01 | 95 | 1014.4 |
| 20260510065238 | 51 | 106 | 0.0 | 1.0 | 0.00 | 0.01 | 0.01 | 95 | 1014.4 |
| 20260510064734 | 50 | 99 | 0.0 | 0.0 | 0.00 | 0.01 | 0.01 | 95 | 1014.3 |
| 20260510064232 | 50 | 101 | 0.0 | 0.0 | 0.00 | 0.01 | 0.01 | 95 | 1014.8 |
| 20260510063728 | 50 | 103 | 0.0 | 0.0 | 0.00 | 0.01 | 0.01 | 95 | 1014.5 |
| 20260510063225 | 50 | 95 | 0.0 | 1.0 | 0.07 | 0.01 | 0.01 | 95 | 1014.6 |
| 20260510062721 | 51 | 99 | 0.0 | 0.0 | 0.07 | 0.01 | 0.01 | 95 | 1014.6 |
| 20260510062217 | 51 | 112 | 0.0 | 0.0 | 0.00 | 0.00 | 0.00 | 95 | 1014.5 |
| 20260510061713 | 51 | 116 | 0.0 | 0.0 | 0.00 | 0.00 | 0.00 | 95 | 1014.5 |
| 20260510061210 | 51 | 117 | 0.0 | 0.0 | 0.00 | 0.00 | 0.00 | 95 | 1014.3 |
| 20260510060706 | 51 | 118 | 0.0 | 0.0 | 0.00 | 0.00 | 0.00 | 95 | 1014.4 |
| 20260510060203 | 51 | 119 | 0.0 | 0.0 | 0.00 | 0.00 | 0.00 | 95 | 1014.2 |
| 20260510055659 | 51 | 120 | 0.0 | 0.0 | 0.00 | 0.00 | 0.00 | 95 | 1014.3 |
| 20260510055157 | 51 | 138 | 1.0 | 1.0 | 0.00 | 0.00 | 0.00 | 95 | 1014.4 |
| 20260510054653 | 51 | 133 | 0.0 | 1.0 | 0.00 | 0.00 | 0.00 | 95 | 1014.5 |
| 20260510054149 | 51 | 130 | 0.0 | 1.0 | 0.00 | 0.00 | 0.00 | 95 | 1014.2 |
| 20260510053648 | 51 | 119 | 0.0 | 0.0 | 0.00 | 0.00 | 0.00 | 95 | 1014.2 |
| 20260510053145 | 51 | 125 | 0.0 | 1.0 | 0.00 | 0.00 | 0.00 | 95 | 1014.3 |
| 20260510052641 | 51 | 121 | 0.0 | 0.0 | 0.00 | 0.00 | 0.00 | 95 | 1014.2 |
| 20260510052137 | 51 | 107 | 0.0 | 0.0 | 0.00 | 0.00 | 0.00 | 95 | 1014.4 |
| 20260510051633 | 51 | 106 | 0.0 | 0.0 | 0.00 | 0.00 | 0.00 | 95 | 1014.4 |
| 20260510051130 | 51 | 106 | 0.0 | 1.0 | 0.00 | 0.00 | 0.00 | 95 | 1014.5 |
| 20260510050627 | 51 | 106 | 0.0 | 0.0 | 0.00 | 0.00 | 0.00 | 95 | 1014.5 |
| 20260510050124 | 51 | 127 | 0.0 | 0.0 | 0.00 | 0.00 | 0.00 | 95 | 1014.5 |
| 20260510045621 | 51 | 127 | 0.0 | 0.0 | 0.00 | 0.00 | 0.00 | 95 | 1014.8 |
| 20260510045117 | 51 | 119 | 0.0 | 0.0 | 0.00 | 0.00 | 0.00 | 95 | 1014.4 |
| 20260510044613 | 51 | 119 | 0.0 | 0.0 | 0.00 | 0.00 | 0.00 | 95 | 1014.4 |
| 20260510044111 | 51 | 119 | 0.0 | 0.0 | 0.00 | 0.00 | 0.00 | 95 | 1014.5 |
| 20260510043606 | 51 | 119 | 0.0 | 0.0 | 0.00 | 0.00 | 0.00 | 95 | 1014.5 |
| 20260510043103 | 51 | 119 | 0.0 | 0.0 | 0.00 | 0.00 | 0.00 | 95 | 1014.4 |
| 20260510042601 | 51 | 119 | 0.0 | 0.0 | 0.00 | 0.00 | 0.00 | 95 | 1014.3 |
| 20260510042057 | 51 | 111 | 0.0 | 0.0 | 0.00 | 0.00 | 0.00 | 95 | 1014.1 |
| 20260510041554 | 51 | 110 | 0.0 | 0.0 | 0.00 | 0.00 | 0.00 | 95 | 1014.5 |
| 20260510041051 | 51 | 110 | 0.0 | 0.0 | 0.00 | 0.00 | 0.00 | 95 | 1014.5 |
| 20260510040548 | 51 | 109 | 0.0 | 0.0 | 0.00 | 0.00 | 0.00 | 95 | 1014.5 |
| 20260510040044 | 51 | 109 | 0.0 | 0.0 | 0.00 | 0.00 | 0.00 | 95 | 1014.2 |
| 20260510035540 | 51 | 109 | 0.0 | 0.0 | 0.00 | 0.65 | 0.65 | 95 | 1014.2 |
| 20260510035040 | 51 | 109 | 0.0 | 0.0 | 0.00 | 0.65 | 0.65 | 95 | 1014.1 |
| 20260510034539 | 51 | 110 | 0.0 | 0.0 | 0.00 | 0.65 | 0.65 | 95 | 1014.2 |
| 20260510034035 | 51 | 110 | 0.0 | 0.0 | 0.00 | 0.65 | 0.65 | 95 | 1014.1 |
| 20260510033531 | 51 | 110 | 0.0 | 0.0 | 0.00 | 0.65 | 0.65 | 95 | 1014.0 |
| 20260510033029 | 51 | 109 | 0.0 | 0.0 | 0.00 | 0.65 | 0.65 | 94 | 1014.2 |
| 20260510032525 | 51 | 109 | 0.0 | 0.0 | 0.00 | 0.65 | 0.65 | 94 | 1014.2 |
| 20260510032020 | 51 | 106 | 0.0 | 0.0 | 0.00 | 0.65 | 0.65 | 94 | 1014.2 |
| 20260510031516 | 51 | 106 | 0.0 | 0.0 | 0.00 | 0.65 | 0.65 | 94 | 1014.2 |
| 20260510031012 | 51 | 106 | 0.0 | 0.0 | 0.00 | 0.65 | 0.65 | 94 | 1014.0 |
| 20260510030508 | 52 | 105 | 0.0 | 0.0 | 0.00 | 0.65 | 0.65 | 94 | 1014.0 |
| 20260510030005 | 52 | 105 | 0.0 | 0.0 | 0.00 | 0.65 | 0.65 | 94 | 1014.1 |
| 20260510025502 | 52 | 106 | 0.0 | 0.0 | 0.00 | 0.65 | 0.65 | 94 | 1014.1 |
| 20260510025000 | 52 | 106 | 0.0 | 0.0 | 0.00 | 0.65 | 0.65 | 94 | 1014.6 |
| 20260510024456 | 52 | 106 | 0.0 | 0.0 | 0.00 | 0.65 | 0.65 | 94 | 1014.4 |
| 20260510023952 | 52 | 108 | 0.0 | 0.0 | 0.00 | 0.65 | 0.65 | 94 | 1014.2 |
| 20260510023448 | 52 | 108 | 0.0 | 0.0 | 0.00 | 0.65 | 0.65 | 94 | 1014.3 |
| 20260510022945 | 52 | 107 | 0.0 | 0.0 | 0.00 | 0.65 | 0.65 | 94 | 1014.4 |
| 20260510022445 | 52 | 107 | 0.0 | 0.0 | 0.00 | 0.65 | 0.65 | 94 | 1014.5 |
| 20260510021944 | 52 | 106 | 0.0 | 0.0 | 0.00 | 0.65 | 0.65 | 94 | 1014.3 |
| 20260510021442 | 52 | 106 | 0.0 | 0.0 | 0.00 | 0.65 | 0.65 | 94 | 1014.4 |
| 20260510020938 | 52 | 106 | 0.0 | 0.0 | 0.00 | 0.65 | 0.65 | 94 | 1014.2 |
| 20260510020433 | 52 | 105 | 0.0 | 0.0 | 0.00 | 0.65 | 0.65 | 94 | 1014.3 |
| 20260510015929 | 52 | 105 | 0.0 | 0.0 | 0.00 | 0.65 | 0.65 | 94 | 1014.2 |
| 20260510015425 | 53 | 119 | 0.0 | 1.0 | 0.00 | 0.65 | 0.65 | 94 | 1014.3 |
| 20260510014920 | 53 | 122 | 0.0 | 1.0 | 0.00 | 0.65 | 0.65 | 94 | 1014.1 |
| 20260510014418 | 53 | 105 | 1.0 | 1.0 | 0.00 | 0.65 | 0.65 | 94 | 1014.0 |
| 20260510013914 | 53 | 113 | 0.0 | 0.0 | 0.00 | 0.65 | 0.65 | 94 | 1014.0 |
| 20260510013409 | 53 | 111 | 0.0 | 1.0 | 0.00 | 0.65 | 0.65 | 94 | 1014.0 |
| 20260510012905 | 53 | 113 | 0.0 | 0.0 | 0.00 | 0.65 | 0.65 | 94 | 1014.1 |
| 20260510012400 | 53 | 113 | 0.0 | 0.0 | 0.00 | 0.65 | 0.65 | 94 | 1013.9 |
| 20260510011854 | 53 | 113 | 0.0 | 0.0 | 0.00 | 0.65 | 0.65 | 94 | 1013.8 |
| 20260510011350 | 53 | 117 | 0.0 | 0.0 | 0.00 | 0.65 | 0.65 | 94 | 1013.9 |
| 20260510010846 | 52 | 112 | 0.0 | 0.0 | 0.00 | 0.65 | 0.65 | 94 | 1013.8 |
| 20260510010344 | 52 | 113 | 0.0 | 0.0 | 0.00 | 0.65 | 0.65 | 94 | 1013.9 |
| 20260510005840 | 52 | 117 | 0.0 | 0.0 | 0.00 | 0.65 | 0.65 | 94 | 1013.5 |
| 20260510005337 | 52 | 117 | 0.0 | 0.0 | 0.00 | 0.65 | 0.65 | 94 | 1013.6 |
| 20260510004834 | 52 | 118 | 0.0 | 0.0 | 0.00 | 0.65 | 0.65 | 94 | 1013.8 |
| 20260510004332 | 52 | 116 | 0.0 | 0.0 | 0.00 | 0.65 | 0.65 | 94 | 1013.4 |
| 20260510003829 | 53 | 117 | 0.0 | 0.0 | 0.00 | 0.65 | 0.65 | 94 | 1013.5 |
| 20260510003326 | 53 | 117 | 0.0 | 0.0 | 0.00 | 0.65 | 0.65 | 94 | 1013.9 |
| 20260510002825 | 53 | 117 | 0.0 | 0.0 | 0.00 | 0.65 | 0.65 | 94 | 1013.4 |
| 20260510002322 | 53 | 117 | 0.0 | 0.0 | 0.00 | 0.65 | 0.65 | 94 | 1013.5 |
| 20260510001819 | 53 | 117 | 0.0 | 0.0 | 0.00 | 0.65 | 0.65 | 94 | 1013.7 |
| 20260510001317 | 53 | 117 | 0.0 | 0.0 | 0.00 | 0.65 | 0.65 | 94 | 1013.6 |
| 20260510000812 | 53 | 122 | 0.0 | 0.0 | 0.00 | 0.65 | 0.65 | 94 | 1013.5 |
| 20260510000311 | 53 | 123 | 0.0 | 0.0 | 0.00 | 0.65 | 0.65 | 94 | 1013.5 |
| 20260509235807 | 53 | 121 | 0.0 | 0.0 | 0.00 | 0.65 | 0.65 | 94 | 1013.3 |
| 20260509235306 | 53 | 121 | 0.0 | 0.0 | 0.00 | 0.65 | 0.65 | 94 | 1013.2 |
| 20260509234759 | 53 | 118 | 0.0 | 0.0 | 0.00 | 0.65 | 0.65 | 94 | 1013.3 |
| 20260509234256 | 54 | 120 | 0.0 | 0.0 | 0.00 | 0.65 | 0.65 | 93 | 1013.3 |
| 20260509233755 | 54 | 119 | 0.0 | 0.0 | 0.00 | 0.65 | 0.65 | 93 | 1013.5 |
| 20260509233252 | 54 | 122 | 0.0 | 1.0 | 0.00 | 0.65 | 0.65 | 93 | 1013.4 |
| 20260509232748 | 54 | 134 | 1.0 | 1.0 | 0.00 | 0.65 | 0.65 | 93 | 1013.4 |
| 20260509232245 | 54 | 118 | 0.0 | 0.0 | 0.00 | 0.65 | 0.65 | 93 | 1013.5 |
| 20260509231741 | 54 | 118 | 0.0 | 1.0 | 0.00 | 0.65 | 0.65 | 93 | 1013.6 |
| 20260509231239 | 54 | 114 | 0.0 | 0.0 | 0.00 | 0.65 | 0.65 | 93 | 1013.8 |
| 20260509230736 | 54 | 114 | 0.0 | 0.0 | 0.00 | 0.65 | 0.65 | 93 | 1013.8 |
| 20260509230233 | 54 | 104 | 0.0 | 0.0 | 0.00 | 0.65 | 0.65 | 93 | 1013.6 |
| 20260509225728 | 54 | 113 | 0.0 | 1.0 | 0.00 | 0.65 | 0.65 | 93 | 1013.5 |
| 20260509225224 | 54 | 120 | 0.0 | 1.0 | 0.00 | 0.65 | 0.65 | 93 | 1013.6 |
| 20260509224720 | 54 | 137 | 1.0 | 2.0 | 0.00 | 0.65 | 0.65 | 93 | 1013.6 |
| 20260509224217 | 54 | 139 | 1.0 | 2.0 | 0.00 | 0.65 | 0.65 | 93 | 1013.7 |
| 20260509223714 | 54 | 113 | 0.0 | 1.0 | 0.12 | 0.65 | 0.65 | 93 | 1013.8 |
| 20260509223211 | 54 | 102 | 0.0 | 1.0 | 0.31 | 0.65 | 0.65 | 93 | 1013.9 |
| 20260509222708 | 54 | 96 | 2.0 | 2.0 | 0.24 | 0.63 | 0.63 | 93 | 1014.0 |
| 20260509222203 | 54 | 178 | 2.0 | 2.0 | 0.17 | 0.60 | 0.60 | 93 | 1013.9 |
| 20260509221659 | 54 | 157 | 2.0 | 2.0 | 0.12 | 0.58 | 0.58 | 93 | 1014.0 |
| 20260509221155 | 54 | 105 | 0.0 | 0.0 | 0.12 | 0.57 | 0.57 | 93 | 1014.1 |
| 20260509220652 | 54 | 112 | 0.0 | 1.0 | 0.17 | 0.56 | 0.56 | 92 | 1014.1 |
| 20260509220148 | 54 | 113 | 0.0 | 1.0 | 0.26 | 0.55 | 0.55 | 92 | 1014.1 |
| 20260509215644 | 54 | 117 | 0.0 | 1.0 | 0.31 | 0.53 | 0.53 | 92 | 1014.4 |
| 20260509215141 | 55 | 118 | 0.0 | 0.0 | 0.28 | 0.51 | 0.51 | 92 | 1014.4 |
| 20260509214638 | 55 | 95 | 0.0 | 1.0 | 0.12 | 0.48 | 0.48 | 92 | 1014.4 |
| 20260509214135 | 55 | 98 | 0.0 | 1.0 | 0.07 | 0.46 | 0.46 | 92 | 1014.1 |
| 20260509213631 | 55 | 117 | 0.0 | 2.0 | 0.05 | 0.45 | 0.45 | 92 | 1013.8 |
| 20260509213126 | 55 | 100 | 0.0 | 0.0 | 0.05 | 0.45 | 0.45 | 92 | 1014.5 |
| 20260509212625 | 55 | 110 | 0.0 | 0.0 | 0.00 | 0.44 | 0.44 | 92 | 1014.5 |
| 20260509212116 | 55 | 110 | 0.0 | 0.0 | 0.00 | 0.44 | 0.44 | 92 | 1014.1 |
| 20260509211612 | 55 | 111 | 0.0 | 0.0 | 0.00 | 0.44 | 0.44 | 92 | 1014.1 |
| 20260509211108 | 55 | 111 | 0.0 | 0.0 | 0.00 | 0.44 | 0.44 | 92 | 1014.3 |
| 20260509210605 | 55 | 109 | 0.0 | 0.0 | 0.07 | 0.44 | 0.44 | 92 | 1014.3 |
| 20260509205556 | 55 | 110 | 0.0 | 0.0 | 0.05 | 0.43 | 0.43 | 91 | 1014.5 |
| 20260509205051 | 56 | 110 | 0.0 | 0.0 | 0.00 | 0.42 | 0.42 | 91 | 1014.3 |
| 20260509204548 | 56 | 110 | 0.0 | 0.0 | 0.00 | 0.42 | 0.42 | 91 | 1014.7 |